FREGAT R/B, 45255

Orbit data source: Space-Track

FREGAT R/B, 45255 is space debris originally from a launch on Thu, 20 Feb 2020 UTC launched from the Plesetsk Missile And Space Complex (PKMTR). Debris objects in space refer to the collection of defunct objects orbiting the Earth. Examples of debris include non-operational satellites, rocket bodies, and fragments generated from explosions, collisions, or faulty payload assembly.

Loading next visibility...
FREGAT R/B details
Identifier
45255, 2020-015B
Orbit
Molniya
Last TLE update12 hours ago
Origin
Flag of CISLavochkin (CIS)
ManufacturerLavochkin
MissionSpacecraft
Bus & MotorFREGAT, Unknown motor
Mass1,000 kg wet, 1,000 kg dry
Launch date (UTC)
2020-02-20 (5 years ago)
Launch vehicleUnknown
Launch site
Plesetsk Missile And Space Complex (PKMTR)
Object type
Payload
Rocket body
Debris
Shape & HBRIrr, 3.48 m
Radar Cross Section12.110 m², Large (>1 m²)

Expand to show TLE details & history

TLE from 12 hours ago
0 FREGAT R/B
1 45255U 20015B   24361.03951873 -.00000771  00000-0  00000-0 0  9997
2 45255  65.1508  12.9945 7015860 287.3299  11.5409  1.99768793 35406
Epoch: 2024-12-26T00:56Z
Definitive object data (Epoch: 2024-12-26T00:56:54.418Z)
Latitude-0.0002°
Longitude-96.21103°
Altitude4,815.331 km
Speed7.501 km/s
True Right ascension00h 52m 09s
True Declination0° 00' 01"
Sunlit
Object was in daylight at TLE epoch
Visualization TLE readout
Latitude24.89378°
Longitude-83.87919°
Altitude9,092.046 km
Speed6.048 km/s
Apparent Right ascension01h 25m 12s
Apparent Declination7° 21' 01"
Sunlit
Object is in daylight
Visualization observer readout
Local Sidereal Time12:38:16
Azimuth344.376° N
Elevation-41.506°
Doppler factor1
Orbital elements
Apogee altitude38,934.575 km
Perigee altitude1,568.536 km
Semi-major axis26,629.693 km
Eccentricity0.701586
Inclination65.1508°
RAAN12.9945°
Arg. of periapsis287.3299°
True anomaly72.34158°
Mean anomaly11.5409°
Eccentric anomaly34.04609°
Mean motion0.49945 °/min
BSTARUnknown
Orbital period720.79 mins
Loading maneuver chart data...
Loading historical data...
Loading historical data...
Loading historical data...
Loading historical data...
Loading historical data...
Loading historical data...
Loading historical data...
Other satellites on launch #15 in the year 2020 (2020-02-20 UTC)

FREGAT R/B Visibility forecast

Observer location: undefined°, undefined

Span
Click to sort rows by Start time (UTC) header in descending order
Start Az.
Max El. time (UTC)
Max El. Az.
Max El.
End time (UTC)
End Az.
164 mins2024-12-26 15:49:37.468Z342.135° N2024-12-26 17:06:37.468Z339.206° N12.904°2024-12-26 18:33:37.468Z336.292° NNW
659 mins2024-12-27 00:57:37.468Z169.813° S2024-12-27 01:37:37.468Z86.308° E42.785°2024-12-27 11:56:37.468Z147.207° SSE
|